Regional Weather Roundup
Issued by NWS Lake Charles, LA

Home | Current Version | Previous Version | Text Only | Print | Product List | Glossary On
Versions: 1 2 3 4 5 6 7 8 9 10 11 12 13 14 15 16 17 18 19 20 21 22 23 24 25 26 27 28 29 30 31 32 33 34 35 36 37 38 39 40 41 42 43 44 45 46 47 48 49 50
000
ASUS44 KLCH 220710
RWRLCH
RWRLCH
REGIONAL WEATHER ROUNDUP
NATIONAL WEATHER SERVICE LAKE CHARLES LA
200 AM CDT TUE JUL 22 2014

Note: "fair" indicates few or no clouds below 12,000 feet with no
significant weather and/or obstructions to visibility.


ACROSS SOUTHEAST TEXAS

CITY           SKY/WX    TMP DP  RH WIND       PRES   REMARKS
BEAUMONT       CLOUDY    82  78  88 W5        30.01R
BEAUMONT CITY    N/A     80  78  92 CALM      30.02R
ORANGE         SUNNY     81  81 100 CALM      30.02R
JASPER         MOCLDY    76  73  88 CALM      30.05F
$$

ACROSS CENTRAL LOUISIANA

CITY           SKY/WX    TMP DP  RH WIND       PRES   REMARKS
LEESVILLE      MOCLDY    76  70  82 CALM      30.03R
FULLERTON        N/A     75  71  87 CALM      30.02R
ALEXANDRIA INT CLEAR     71  69  93 CALM      30.02R FOG
ESLER FIELD    CLEAR     70  67  90 CALM      30.04R FOG
DERIDDER       PTSUNNY   77  72  84 CALM      30.04F
OAKDALE        MOSUNNY   72  71  96 CALM      30.02S FOG
OPELOUSAS      PTSUNNY   74  73  97 CALM      30.01S
$$

ACROSS SOUTHWEST AND SOUTH CENTRAL LOUISIANA

CITY           SKY/WX    TMP DP  RH WIND       PRES   REMARKS
SULPHUR        PTSUNNY   80  77  91 CALM      30.01S
LAKE CHARLES   PTCLDY    78  76  93 CALM      30.01R
CHENNAULT INT  CLEAR     79  74  86 NE3       30.02S
CAMERON PHI    MOSUNNY   81  73  78 W7        30.00F
DEQUINCY         N/A     76  73  90 CALM      30.02R
JENNINGS         N/A     77  74  90 NE6       30.01R
LAFAYETTE      CLEAR     78  74  87 CALM      30.01S
NEW IBERIA     CLEAR     78  74  87 CALM      30.01F
ABBEVILLE        N/A     76  74  93 CALM      30.01S
PATTERSON      NOT AVBL
SALT POINT       N/A     82  78  88 CALM      29.99F
$$

SELECTED SITES ACROSS THE REGION

CITY           SKY/WX    TMP DP  RH WIND       PRES   REMARKS
HOUSTON BUSH   PTCLDY    82  76  81 CALM      30.02R
HOUSTON HOBBY  PTCLDY    81  76  84 CALM      30.01R
GALVESTON      PTCLDY    83  77  82 SW6       30.02R
COLLEGE STAT   CLEAR     80  74  81 SE5       30.02S
CONROE         CLEAR     81  75  82 SW3       30.03R
HUNTSVILLE     PTCLDY    82  76  81 SW5       30.03S
LUFKIN         MOCLDY    80  74  81 NE5       30.03S
SHREVEPORT     CLEAR     71  69  93 CALM      30.04S
MONROE         CLEAR     70  68  94 CALM      30.05R FOG
NATCHEZ MS     PTCLDY    70  68  94 CALM      30.04R
BATON ROUGE    PTCLDY    73  71  93 CALM      30.01F
N.O. INTL ARPT PTCLDY    80  75  84 SW6       30.00F
SLIDELL        CLEAR     75  71  87 CALM      29.99F
$$

MARINE REPORTS

STATION/POSITION TIME  TEMP    WIND        PRES    VSBY  WAVE
                       AIR SEA DIR/SP/G                  HT/PER
                 (UTC) (F)     (DEG/KT/KT) (MB)    (MI)  (FT/S)
BUOY 30 S HIGH I NOT AVBL
SEA RIM ST PARK  0700   81     270/  5/  6 1016.7R
PORT ARTHUR      0700      87  250/  5/  7 1016.4R
SABINE PASS N    0700   82 85  290/  3/  6 1016.3R
TEXAS POINT      0700   83 85  250/  8/ 11 1016.4R
CALCASIEU PASS   0700   81 85  300/  8/ 10 1016.8R
LK CHARLES BEACH 0700   80 82              1016.8F
MARSH ISLAND     0600   84     250/  8/  9   N/A
FRESH WATER LOCK 0700   77 86  280/  9/ 12 1015.7S
AMERADA PASS     0700   80 83   90/  2/  3 1015.6F
$$


USA.gov is the U.S. government's official web portal to all federal, state and local government web resources and services.